Tracking 28794 objects as of 19-Apr-2024
HD Live streaming from Space Station
objects crossing your sky now

COSMOS 2251 DEB

Track COSMOS 2251 DEB now!
10-day predictions


NORAD ID: 33944
Int'l Code: 1993-036EZ
Perigee: 697.3 km
Apogee: 866.5 km
Inclination: 74.0 °
Period: 100.3 minutes
Semi major axis: 7152 km
RCS: 0.0636 m2 (small)
Launch date: June 16, 1993
Source: Commonwealth of Independent States (former USSR) (CIS)
Launch site: PLESETSK MISSILE AND SPACE COMPLEX (PKMTR)

Note: This is SATELLITE DEBRIS
Your satellite tracking list
Your tracking list is empty




NASA's NSSDC Master Catalog

Two Line Element Set (TLE):
1 33944U 93036EZ  24110.04280071  .00001795  00000-0  59017-3 0  9991
2 33944  74.0416 336.0678 0118263 223.9136 253.0715 14.35091391793746
Source of the keplerian elements: AFSPC